Location: Poughquag
(41.6090°N, 73.6820°W)
Time: 09:19:57
(UTC-05:00)

DIWATA 2B (PO-101) - Pass Details

Date: 21 November 2025
Orbit: 563 x 574 km, 98.1° (Epoch: 07 December)

Event Time Altitude Azimuth Distance (km) Brightness Sun altitude
Exits shadow 17:05:10 - 42° (NE) 2,219 ? -6.9°
Reaches altitude 10° 17:06:24 10° 53° (NE) 1,863 ? -7.1°
Maximum altitude 17:08:57 16° 93° (E) 1,500 ? -7.5°
Drops below altitude 10° 17:11:30 10° 133° (SE) 1,855 ? -8.0°
Sets 17:14:19 0° 154° (SSE) 2,747 ? -8.5°
